Weather History for KCON - April, 2014

Change the Weather History Date:

Sunday, April 27, 2014

  Actual Average Record
Temperature  
Mean Temperature 45 °F 50 °F  
Max Temperature 52 °F 63 °F 92 °F (1990)
Min Temperature 37 °F 36 °F 21 °F (1972)
Degree Days  
Heating Degree Days 20 16  
Month to date heating degree days 556 556  
Since 1 July heating degree days 7239 6803  
Cooling Degree Days 0 0  
Month to date cooling degree days 0 0  
Year to date cooling degree days 0 0  
Moisture  
Dew Point 38 °F    
Average Humidity 81    
Maximum Humidity 100    
Minimum Humidity 61    
Precipitation  
Precipitation 0.30 in 0.12 in 0.97 in (1979)
Month to date precipitation 2.39 3.06  
Year to date precipitation 13.69 11.65  
Snow  
Snow 0.00 in 0.00 in 0.50 in (1982)
Month to date snowfall 0.2 2.7  
Since 1 July snowfall 80.4 61.3  
Snow Depth 0.00 in    
Sea Level Pressure  
Sea Level Pressure 29.94 in    
Wind  
Wind Speed 7 mph (NNW)    
Max Wind Speed 20 mph    
Max Gust Speed 28 mph    
Visibility 9 miles    
Events Rain    
T = Trace of Precipitation, MM = Missing Value Source: NWS Daily Summary

Daily Weather History Graph

Daily Weather History Graph

Search for Another Location

Airport or City:

Trip Planner

Search our weather history database for the weather conditions in past years. The results will help you decide how hot, cold, wet, or windy it might be!

Date:

Astronomy

Apr. 27, 2014 Rise Set
Actual Time 5:45 AM EDT 7:42 PM EDT
Civil Twilight 5:14 AM EDT 8:13 PM EDT
Nautical Twilight 4:36 AM EDT 8:51 PM EDT
Astronomical Twilight 3:56 AM EDT 9:32 PM EDT
Moon 4:47 AM EDT (4/27) 6:10 PM EDT (4/27)
Length of Visible Light 14h 59m
Length of Day
13h 57m
Waning Crescent, 3% of the Moon is Illuminated
Apr 27
Waning Crescent
Apr 29
New
May 6
First Quarter
May 14
Full
May 21
Last Quarter

Hourly Weather History & Observations

Time (EDT) Temp. Windchill Dew Point Humidity Pressure Visibility Wind Dir Wind Speed Gust Speed Precip Events Conditions
12:37 AM 39.0 °F - 37.9 °F 96% 29.87 in 8.0 mi Calm Calm - 0.06 in Rain Light Rain
12:51 AM 39.2 °F - 37.4 °F 93% 29.86 in 5.0 mi Calm Calm - N/A Rain Light Rain
1:51 AM 39.0 °F - 37.9 °F 96% 29.86 in 4.0 mi Calm Calm - 0.10 in Rain Rain
2:00 AM 39.0 °F 36.8 °F 37.9 °F 96% 29.85 in 3.0 mi East 3.5 mph - 0.02 in Rain Rain
2:24 AM 37.9 °F 33.5 °F 37.0 °F 97% 29.85 in 4.0 mi East 5.8 mph - 0.08 in Rain Rain
2:51 AM 37.9 °F 34.4 °F 37.0 °F 97% 29.86 in 6.0 mi East 4.6 mph - 0.14 in Rain Rain
3:09 AM 37.9 °F 33.5 °F 36.0 °F 93% 29.85 in 10.0 mi East 5.8 mph - 0.02 in Rain Light Rain
3:51 AM 37.4 °F 33.8 °F 35.6 °F 93% 29.86 in 10.0 mi NE 4.6 mph - N/A Rain Light Rain
4:51 AM 37.9 °F 35.5 °F 37.0 °F 97% 29.88 in 9.0 mi NNE 3.5 mph - 0.01 in Rain Light Rain
5:51 AM 37.9 °F 34.4 °F 37.0 °F 97% 29.89 in 10.0 mi NNW 4.6 mph - 0.02 in Rain Light Rain
6:51 AM 39.2 °F 35.9 °F 37.4 °F 93% 29.90 in 10.0 mi NW 4.6 mph - N/A   Overcast
7:33 AM 39.0 °F 34.8 °F 37.9 °F 96% 29.91 in 10.0 mi NW 5.8 mph - N/A   Overcast
7:51 AM 39.0 °F 35.7 °F 37.0 °F 93% 29.92 in 10.0 mi NW 4.6 mph - N/A   Overcast
8:51 AM 39.2 °F 35.0 °F 37.4 °F 93% 29.92 in 10.0 mi NW 5.8 mph - N/A   Overcast
9:36 AM 41.0 °F - 37.0 °F 86% 29.93 in 10.0 mi Calm Calm - N/A   Overcast
9:51 AM 41.0 °F 38.0 °F 37.9 °F 89% 29.95 in 10.0 mi WNW 4.6 mph - N/A   Overcast
10:05 AM 41.0 °F 38.0 °F 37.0 °F 86% 29.94 in 10.0 mi WNW 4.6 mph - N/A   Overcast
10:44 AM 43.0 °F - 37.0 °F 80% 29.95 in 10.0 mi Calm Calm - N/A   Overcast
10:51 AM 44.1 °F 40.8 °F 37.9 °F 79% 29.96 in 10.0 mi WNW 5.8 mph - N/A   Overcast
11:17 AM 46.0 °F 41.9 °F 39.0 °F 76% 29.95 in 10.0 mi WNW 8.1 mph - N/A   Overcast
11:51 AM 46.9 °F - 37.9 °F 71% 29.95 in 10.0 mi NNW 6.9 mph - N/A   Overcast
12:51 PM 48.0 °F - 37.9 °F 68% 29.95 in 10.0 mi NNE 4.6 mph - N/A   Overcast
1:03 PM 48.9 °F - 37.0 °F 64% 29.94 in 10.0 mi Calm Calm - N/A   Overcast
1:11 PM 48.0 °F - 37.9 °F 68% 29.94 in 10.0 mi North 8.1 mph - 0.00 in Rain Light Rain
1:36 PM 48.0 °F - 39.9 °F 74% 29.95 in 9.0 mi NNW 4.6 mph - 0.00 in Rain Light Rain
1:51 PM 46.9 °F - 39.0 °F 74% 29.96 in 9.0 mi NW 11.5 mph 17.3 mph 0.00 in Rain Light Rain
1:59 PM 46.9 °F - 39.9 °F 77% 29.95 in 10.0 mi NNW 8.1 mph - 0.00 in Rain Light Rain
2:08 PM 48.9 °F - 39.9 °F 71% 29.95 in 10.0 mi NW 8.1 mph - 0.00 in Rain Light Rain
2:51 PM 50.0 °F - 37.9 °F 63% 29.96 in 10.0 mi NNW 5.8 mph - 0.00 in   Overcast
3:18 PM 46.9 °F - 39.9 °F 77% 29.96 in 10.0 mi NNW 6.9 mph - 0.00 in Rain Light Rain
3:51 PM 46.9 °F - 41.0 °F 80% 29.98 in 10.0 mi NW 5.8 mph - 0.01 in Rain Light Rain
4:51 PM 51.1 °F - 39.0 °F 63% 29.98 in 10.0 mi NW 12.7 mph - 0.00 in   Partly Cloudy
5:51 PM 50.0 °F - 37.0 °F 61% 29.98 in 10.0 mi NW 10.4 mph 18.4 mph N/A   Mostly Cloudy
6:51 PM 48.0 °F - 36.0 °F 63% 30.00 in 10.0 mi NNW 13.8 mph 25.3 mph N/A   Partly Cloudy
7:51 PM 46.9 °F - 36.0 °F 66% 30.03 in 10.0 mi NW 11.5 mph - N/A   Overcast
8:51 PM 44.1 °F 38.6 °F 36.0 °F 73% 30.04 in 10.0 mi NNW 10.4 mph - 0.00 in   Partly Cloudy
9:51 PM 43.0 °F 37.7 °F 36.0 °F 76% 30.06 in 10.0 mi NNW 9.2 mph - N/A   Clear
10:51 PM 41.0 °F 37.1 °F 35.6 °F 81% 30.05 in 10.0 mi NW 5.8 mph - N/A   Clear
11:51 PM 39.2 °F 34.2 °F 35.6 °F 87% 30.05 in 10.0 mi NNW 6.9 mph - N/A   Clear